Onweer radar Meer informatie blitzortung!


Regen radar Meer informatie rain snow radar


Bezoek onze andere website:

Template documentation
and downloads

And another site



15 daagse weersverwachting Edinburgh (GB)

  • Overzicht
  • Per uur
  • 15 dagen
  • Extra
  • Vergelijk
  • Kaarten
  • Dagkaart
  • Meer »
  • Info
  • Statistieken
  • Directe link
    Temp 6h Neerslag Wind  
 04:28     22:01    Daglengte: 17:33 Vandaag
19:00
14°
 
3
 04:28     22:01    Daglengte: 17:33 Morgen
01:00
12°
3.2 mm
3
07:00
12°
 
5
13:00
16°
0.8 mm
8
19:00
15°
0.6 mm
8
 04:28     22:02    Daglengte: 17:34 Dinsdag 18 Jun
01:00
12°
 
3
07:00
12°
 
4
13:00
15°
 
7
19:00
16°
 
4
 04:28     22:02    Daglengte: 17:34 Woensdag 19 Jun
01:00
11°
 
2
07:00
11°
 
1
13:00
14°
15.6 mm
2
Locatie info
Region: Scotland
Latitude: 55.9543°N
Longitude: -3.2019°E
66 masl
Postcode: EH2 3
Temp/Neerslag /Baro Onweer/Dauwpunt
    Temp Baro 1h Neerslag Dauwpunt Wind UV Bewolking  
 04:28     22:01    Daglengte: 17:33 Vandaag
18:00
14°
1008.9 hPa
49%
7.5°
4
Windvlaag: 1.8 m/s
65%
19:00
14°
1008.7 hPa
32%
8.0°
3
Windvlaag: 1.9 m/s
73%
20:00
14°
1008.6 hPa
17%
8.6°
3
Windvlaag: 1.9 m/s
45%
21:00
13°
1008.5 hPa
16%
9.2°
3
Windvlaag: 2.7 m/s
45%
22:00
13°
1008.3 hPa
22%
9.6°
2
Windvlaag: 2.7 m/s
85%
23:00
12°
1007.9 hPa 1.0 mm
82%
9.8°
3
Windvlaag: 2.7 m/s
86%
 04:28     22:01    Daglengte: 17:33 Morgen
00:00
12°
1007.3 hPa 1.4 mm
82%
9.9°
3
Windvlaag: 2.2 m/s
89%
01:00
12°
1006.7 hPa 0.8 mm
81%
10.0°
3
Windvlaag: 2.4 m/s
69%
02:00
12°
1006.3 hPa
31%
10.1°
4
Windvlaag: 3.9 m/s
8%
03:00
12°
1006.4 hPa
17%
9.8°
6
Windvlaag: 5.2 m/s
9%
04:00
12°
1006.4 hPa
15%
9.4°
6
Windvlaag: 5.2 m/s
3%
05:00
11°
1006.9 hPa
14%
9.2°
5
Windvlaag: 4.5 m/s
4%
06:00
12°
1007.4 hPa
14%
9.3°
5
Windvlaag: 4.2 m/s
3%
07:00
12°
1007.8 hPa
15%
9.6°
5
Windvlaag: 4.1 m/s
16%
08:00
13°
1008.0 hPa
14%
9.2°
5
Windvlaag: 4.1 m/s
15%
09:00
14°
1008.1 hPa
17%
9.3°
6
Windvlaag: 4 m/s
11%
10:00
14°
1008.2 hPa
58%
9.5°
6
Windvlaag: 4 m/s
23%
11:00
15°
1008.1 hPa
69%
9.0°
7
Windvlaag: 4.5 m/s
27%
12:00
15°
1008.2 hPa
76%
8.6°
7
Windvlaag: 4.5 m/s
29%
13:00
16°
1008.2 hPa 0.8 mm
73%
8.9°
8
Windvlaag: 4.5 m/s
26%
14:00
16°
1008.3 hPa
74%
8.2°
8
Windvlaag: 5.6 m/s
27%
15:00
16°
1008.1 hPa
71%
8.7°
8
Windvlaag: 5.8 m/s
30%
16:00
16°
1008.1 hPa
71%
8.2°
8
Windvlaag: 6.1 m/s
25%
17:00
16°
1008.0 hPa
69%
9.3°
8
Windvlaag: 6.1 m/s
20%
18:00
16°
1008.3 hPa 0.6 mm
77%
9.8°
8
Windvlaag: 5.6 m/s
27%
19:00
15°
1008.6 hPa
78%
10.3°
8
Windvlaag: 5.6 m/s
45%
20:00
15°
1008.9 hPa
24%
10.4°
6
Windvlaag: 5.1 m/s
36%
21:00
14°
1009.4 hPa
17%
10.0°
5
Windvlaag: 3.6 m/s
20%
22:00
13°
1009.9 hPa
14%
9.8°
4
Windvlaag: 2.2 m/s
12%
23:00
13°
1010.1 hPa
24%
9.9°
3
Windvlaag: 2.6 m/s
2%
 04:28     22:02    Daglengte: 17:34 Dinsdag 18 Jun
00:00
12°
1010.2 hPa
25%
10.1°
3
Windvlaag: 3.2 m/s
1%
01:00
12°
1010.3 hPa
18%
10.0°
3
Windvlaag: 3.7 m/s
2%
02:00
12°
1010.2 hPa
23%
9.9°
3
Windvlaag: 4.2 m/s
4%
03:00
12°
1010.1 hPa
28%
9.8°
3
Windvlaag: 4.3 m/s
11%
04:00
11°
1010.0 hPa
28%
9.7°
4
Windvlaag: 4.3 m/s
5%
05:00
11°
1010.0 hPa
28%
9.6°
4
Windvlaag: 4.1 m/s
6%
06:00
12°
1010.0 hPa
17%
9.6°
4
Windvlaag: 3.8 m/s
7%
07:00
12°
1010.0 hPa
14%
9.5°
4
Windvlaag: 3.9 m/s
14%
08:00
13°
1010.1 hPa
14%
9.4°
6
Windvlaag: 4.1 m/s
11%
09:00
14°
1010.0 hPa
14%
9.2°
6
Windvlaag: 4.1 m/s
24%
10:00
14°
1010.0 hPa
14%
8.7°
6
Windvlaag: 3.8 m/s
20%
11:00
15°
1010.0 hPa
51%
8.3°
7
Windvlaag: 3.3 m/s
40%
12:00
15°
1010.1 hPa
18%
7.7°
7
Windvlaag: 3.1 m/s
33%
13:00
15°
1010.0 hPa
17%
7.4°
7
Windvlaag: 3.2 m/s
29%
14:00
16°
1009.9 hPa
30%
7.4°
6
Windvlaag: 3.3 m/s
29%
15:00
16°
1009.9 hPa
63%
7.3°
6
Windvlaag: 3.1 m/s
52%
16:00
16°
1009.7 hPa
27%
7.7°
6
Windvlaag: 2.6 m/s
63%
17:00
16°
1009.6 hPa
21%
8.0°
6
Windvlaag: 2.3 m/s
50%
18:00
16°
1009.5 hPa
21%
8.0°
5
Windvlaag: 2 m/s
38%
19:00
16°
1009.4 hPa
21%
8.0°
4
Windvlaag: 1.7 m/s
51%
20:00
15°
1009.6 hPa
68%
9.1°
3
Windvlaag: 1.4 m/s
39%
21:00
14°
1009.8 hPa
27%
9.6°
3
Windvlaag: 1.6 m/s
32%
22:00
13°
1010.0 hPa
62%
9.1°
3
Windvlaag: 1.5 m/s
17%
23:00
12°
1010.1 hPa
22%
9.2°
2
Windvlaag: 1.5 m/s
31%
 04:28     22:02    Daglengte: 17:34 Woensdag 19 Jun
00:00
12°
1010.0 hPa
21%
9.1°
2
Windvlaag: 1.5 m/s
61%
01:00
11°
1009.8 hPa
23%
9.2°
2
Windvlaag: 1.7 m/s
86%
02:00
11°
1009.5 hPa
27%
9.3°
2
Windvlaag: 1.4 m/s
45%
03:00
11°
1009.1 hPa
24%
9.2°
2
Windvlaag: 1.3 m/s
83%
04:00
10°
1008.8 hPa
21%
8.9°
2
Windvlaag: 0.9 m/s
94%
05:00
10°
1008.6 hPa
21%
9.0°
2
Windvlaag: 0.8 m/s
96%
06:00
11°
1008.4 hPa
21%
9.0°
2
Windvlaag: 0.6 m/s
97%
07:00
11°
1008.2 hPa
22%
9.3°
1
Windvlaag: 0.8 m/s
98%
08:00
12°
1007.9 hPa
30%
9.6°
2
Windvlaag: 3.3 m/s
92%
09:00
12°
1007.7 hPa
92%
9.9°
2
Windvlaag: 3 m/s
91%
10:00
13°
1007.4 hPa 4.0 mm
100%
10.2°
2
Windvlaag: 2.6 m/s
87%
11:00
13°
1007.1 hPa 2.7 mm
100%
10.4°
2
Windvlaag: 2.4 m/s
97%
12:00
14°
1006.8 hPa 4.5 mm
100%
10.6°
2
Windvlaag: 1.2 m/s
95%
13:00
14°
1006.4 hPa 4.4 mm
100%
10.8°
2
Windvlaag: 0.8 m/s
93%
14:00
13°
1006.3 hPa 4.5 mm
100%
10.3°
2
Windvlaag: 4.4 m/s
84%
15:00
14°
1005.9 hPa 4.4 mm
100%
9.9°
2
Windvlaag: 3.6 m/s
82%
16:00
14°
1005.5 hPa 4.3 mm
100%
9.6°
3
Windvlaag: 3.7 m/s
79%
17:00
14°
1005.1 hPa 4.4 mm
100%
9.3°
3
Windvlaag: 2.6 m/s
70%
Temp/Neerslag /Baro Onweer/Dauwpunt
    Temp Baro Neerslag Dauwpunt Wind Bewolking  
 04:28     22:01    Daglengte: 17:33 Vandaag
19:00
14°
1008.7 hPa   8.0°
3
73%
22:00
13°
1008.3 hPa   9.6°
2
85%
 04:28     22:01    Daglengte: 17:33 Morgen
01:00
12°
1006.7 hPa 3.2 mm 10.0°
3
69%
04:00
12°
1006.4 hPa   9.4°
6
3%
07:00
12°
1007.8 hPa   9.6°
5
16%
10:00
14°
1008.2 hPa   9.5°
6
23%
13:00
16°
1008.2 hPa 0.8 mm 8.9°
8
26%
16:00
16°
1008.1 hPa   8.2°
8
25%
19:00
15°
1008.6 hPa 0.6 mm 10.3°
8
45%
22:00
13°
1009.9 hPa   9.8°
4
12%
 04:28     22:02    Daglengte: 17:34 Dinsdag 18 Jun
01:00
12°
1010.3 hPa   10.0°
3
2%
04:00
11°
1010.0 hPa   9.7°
4
5%
07:00
12°
1010.0 hPa   9.5°
4
14%
10:00
14°
1010.0 hPa   8.7°
6
20%
13:00
15°
1010.0 hPa   7.4°
7
29%
16:00
16°
1009.7 hPa   7.7°
6
63%
19:00
16°
1009.4 hPa   8.0°
4
51%
22:00
13°
1010.0 hPa   9.1°
3
17%
 04:28     22:02    Daglengte: 17:34 Woensdag 19 Jun
01:00
11°
1009.8 hPa   9.2°
2
86%
04:00
10°
1008.8 hPa   8.9°
2
94%
07:00
11°
1008.2 hPa   9.3°
1
98%
10:00
13°
1007.4 hPa 4.0 mm 10.2°
2
87%
13:00
14°
1006.4 hPa 11.6 mm 10.8°
2
93%
16:00
14°
1005.5 hPa 13.2 mm 9.6°
3
79%
19:00
14°
1004.6 hPa 13.1 mm 9.0°
3
37%
22:00
13°
1005.1 hPa 10.9 mm 9.2°
3
70%
 04:28     22:02    Daglengte: 17:34 Donderdag 20 Jun
01:00
12°
1005.1 hPa 10.9 mm 9.1°
3
77%
04:00
12°
1004.8 hPa 11.2 mm 8.7°
4
61%
07:00
12°
1004.4 hPa 11.2 mm 8.3°
4
45%
10:00
13°
1004.9 hPa 11.3 mm 8.5°
5
47%
13:00
13°
1005.4 hPa 11.9 mm 8.8°
6
49%
16:00
13°
1005.8 hPa 13.2 mm 8.2°
7
49%
19:00
12°
1006.2 hPa 14.6 mm 7.6°
7
49%
22:00
11°
1007.7 hPa 14.7 mm 7.7°
7
25%
 04:28     22:03    Daglengte: 17:35 Vrijdag 21 Jun
01:00
Voelt als: 6.4°
1009.2 hPa 14.7 mm 7.7°
6
1%
04:00
10°
Voelt als: 6.6°
1010.7 hPa 14.7 mm 7.5°
6
11%
07:00
10°
Voelt als: 7.1°
1012.1 hPa 14.7 mm 7.3°
6
21%
10:00
12°
1013.5 hPa 14.8 mm 7.2°
7
30%
13:00
14°
1014.9 hPa 15.2 mm 6.8°
7
39%
16:00
13°
1016.2 hPa 15.7 mm 6.8°
7
32%
19:00
13°
1017.5 hPa 16.5 mm 6.7°
6
24%
22:00
11°
1019.5 hPa 16.6 mm 6.6°
5
19%
 04:29     22:03    Daglengte: 17:34 Zaterdag 22 Jun
01:00
Voelt als: 6.3°
1021.4 hPa 16.6 mm 6.2°
4
14%
04:00
Voelt als: 6.8°
1022.4 hPa 16.6 mm 6.7°
4
12%
07:00
Voelt als: 7.6°
1023.4 hPa 16.6 mm 7.2°
3
11%
10:00
12°
1024.0 hPa 16.6 mm 6.9°
2
51%
13:00
14°
1024.6 hPa 16.8 mm 5.8°
1
92%
16:00
14°
1024.4 hPa 17.5 mm 7.3°
2
81%
19:00
14°
1024.3 hPa 18.1 mm 8.4°
3
70%
22:00
13°
1024.8 hPa 18.2 mm 8.7°
3
66%
 04:29     22:03    Daglengte: 17:34 Zondag 23 Jun
01:00
11°
1025.3 hPa 18.2 mm 8.9°
2
62%
04:00
11°
1025.3 hPa 18.2 mm 8.7°
1
67%
07:00
11°
1025.3 hPa 18.2 mm 8.5°
0
73%
10:00
13°
1025.3 hPa 18.3 mm 8.8°
1
66%
13:00
15°
1025.4 hPa 18.7 mm 8.8°
3
59%
16:00
15°
1025.1 hPa   9.8°
3
59%
19:00
15°
1024.8 hPa 38.8 mm 10.8°
4
59%
 04:29     22:03    Daglengte: 17:34 Maandag 24 Jun
01:00
10°
1026.2 hPa 39.2 mm 9.9°
2
6%
07:00
11°
1026.7 hPa 45.2 mm 9.9°
3
55%
13:00
14°
1027.0 hPa 55.1 mm 9.7°
4
10%
19:00
14°
1026.8 hPa 63.6 mm 7.9°
3
25%
 04:30     22:03    Daglengte: 17:33 Dinsdag 25 Jun
01:00
11°
1027.7 hPa 73.6 mm 9.0°
1
90%
07:00
12°
1027.0 hPa 93.8 mm 8.6°
2
65%
13:00
18°
1026.9 hPa 98.1 mm 10.3°
1
53%
19:00
17°
1025.9 hPa 100.9 mm 12.8°
2
21%
 04:30     22:03    Daglengte: 17:33 Woensdag 26 Jun
01:00
13°
1026.5 hPa 102.3 mm 9.6°
4
5%
07:00
10°
1013.1 hPa 102.5 mm 5.8°
6
1%
13:00
15°
1023.7 hPa 0.1 mm 7.9°
2
40%
19:00
15°
1022.5 hPa 0.3 mm 9.2°
1
62%
 04:31     22:02    Daglengte: 17:31 Donderdag 27 Jun
01:00
Voelt als: 8.3°
1022.1 hPa 0.4 mm 6.8°
0
59%
07:00
10°
1020.4 hPa 0.7 mm 7.8°
1
51%
13:00
15°
1019.3 hPa 0.8 mm 9.4°
1
56%
19:00
14°
1017.5 hPa 1.2 mm 10.2°
1
67%
 04:32     22:02    Daglengte: 17:30 Vrijdag 28 Jun
01:00
Voelt als: 8.9°
1016.5 hPa 0.9 mm 7.9°
1
53%
07:00
10°
1014.9 hPa 0.6 mm 9.0°
2
54%
13:00
16°
1014.5 hPa 0.6 mm 10.4°
3
55%
19:00
15°
1013.7 hPa 0.9 mm 10.9°
3
66%
 04:32     22:02    Daglengte: 17:30 Zaterdag 29 Jun
01:00
10°
Voelt als: 8.8°
1013.8 hPa 0.5 mm 8.7°
2
51%
07:00
11°
1013.0 hPa 0.5 mm 9.2°
2
45%
13:00
16°
1012.7 hPa 0.6 mm 10.5°
2
53%
19:00
16°
1011.9 hPa 1.1 mm 11.2°
2
66%
 04:33     22:02    Daglengte: 17:29 Zondag 30 Jun
01:00
Voelt als: 9.3°
1011.9 hPa 0.9 mm 8.3°
1
54%
07:00
11°
1010.6 hPa 1.0 mm 9.5°
1
59%
13:00
15°
1010.4 hPa 1.4 mm 10.8°
2
58%
19:00
15°
1010.2 hPa 2.1 mm 11.0°
1
59%
 04:34     22:01    Daglengte: 17:27 Maandag 01 Jul
01:00
Voelt als: 9.4°
1010.9 hPa 1.1 mm 8.4°
1
46%
07:00
10°
1010.7 hPa 0.7 mm 8.7°
2
50%
13:00
15°
1011.2 hPa 0.8 mm 9.9°
2
52%
  CAPE Lifted Index Hail Supercell Tornado SRH 3km CL BTM PRES CL TOP PRES Swiss DWD icon SMHI TS
 04:28     22:01    Daglengte: 17:33 Vandaag
18:00 50 J/kg 0.5 K 0 % 0 % 0 % 0 m²/s² 0 0 0.77 2
19:00 49 J/kg 0.9 K 0 % 0 % 0 % 0 m²/s² 0 0 1.35 3
20:00 67 J/kg 0.9 K 0 % 0 % 0 % 0 m²/s² 0 0 2.22 1
21:00 103 J/kg 0.5 K 0 % 0 % 0 % 0 m²/s² 0 0 2.33 2
22:00 54 J/kg 0.9 K 0 % 0 % 0 % 0 m²/s² 0 0 2.04 3
23:00 0 J/kg 2.2 K 0 % 0 % 0 % 0 m²/s² 0 0 2.44 61
 04:28     22:01    Daglengte: 17:33 Morgen
00:00 0 J/kg -0.1 K 0 % 0 % 0 % 0 m²/s² 0 0 0.38 80
01:00 32 J/kg -0.1 K 0 % 0 % 0 % 0 m²/s² 0 0 0.62 3
02:00 89 J/kg 0.7 K 0 % 0 % 0 % 0 m²/s² 0 0 1.6 1
03:00 18 J/kg 1.5 K 0 % 0 % 0 % 0 m²/s² 0 0 1.83 0
04:00 0 J/kg 2.9 K 0 % 0 % 0 % 0 m²/s² 0 0 5.06 0
05:00 0 J/kg 2.8 K 0 % 0 % 0 % 0 m²/s² 0 0 4.57 1
06:00 14 J/kg 2.6 K 0 % 0 % 0 % 0 m²/s² 0 0 5.78 2
07:00 26 J/kg 2.8 K 0 % 0 % 0 % 0 m²/s² 0 0 6.25 3
08:00 59 J/kg 2.4 K 0 % 0 % 0 % 0 m²/s² 0 0 5.43 1
09:00 108 J/kg 1.7 K 0 % 0 % 0 % 0 m²/s² 0 0 4.73 2
10:00 115 J/kg 1.2 K 0 % 0 % 0 % 0 m²/s² 0 0 4.41 2
11:00 99 J/kg 1.3 K 0 % 0 % 0 % 0 m²/s² 0 0 4.33 2
12:00 104 J/kg 0.9 K 0 % 0 % 0 % 0 m²/s² 0 0 3.75 1
13:00 136 J/kg 0.3 K 0 % 0 % 0 % 0 m²/s² 0 0 3 2
14:00 162 J/kg 0.3 K 0 % 0 % 0 % 0 m²/s² 0 0 3.09 1
15:00 147 J/kg 0.4 K 0 % 0 % 0 % 0 m²/s² 0 0 3.19 2
16:00 180 J/kg 0.0 K 0 % 0 % 0 % 0 m²/s² 0 0 2.64 1
17:00 251 J/kg -0.7 K 0 % 0 % 0 % 0 m²/s² 0 0 1.73 2
18:00 328 J/kg -1.2 K 0 % 0 % 0 % 0 m²/s² 0 0 0.57 2
19:00 355 J/kg -1.6 K 0 % 0 % 0 % 0 m²/s² 0 0 -1.39 3
20:00 370 J/kg -1.8 K 0 % 0 % 0 % 0 m²/s² 0 0 -0.21 3
21:00 0 J/kg -0.6 K 0 % 0 % 0 % 0 m²/s² 0 0 0.3 0
22:00 116 J/kg -0.7 K 0 % 0 % 0 % 0 m²/s² 0 0 0.62 0
23:00 41 J/kg -0.2 K 0 % 0 % 0 % 0 m²/s² 0 0 2.83 1
 04:28     22:02    Daglengte: 17:34 Dinsdag 18 Jun
00:00 21 J/kg 0.3 K 0 % 0 % 0 % 0 m²/s² 0 0 2.46 1
01:00 13 J/kg 0.6 K 0 % 0 % 0 % 0 m²/s² 0 0 3.12 2
02:00 21 J/kg 0.9 K 0 % 0 % 0 % 0 m²/s² 0 0 4.65 1
03:00 3 J/kg 1.4 K 0 % 0 % 0 % 0 m²/s² 0 0 6.38 1
04:00 11 J/kg 2.6 K 0 % 0 % 0 % 0 m²/s² 0 0 7.73 1
05:00 10 J/kg 3.7 K 0 % 0 % 0 % 0 m²/s² 0 0 8.68 0
06:00 3 J/kg 4.3 K 0 % 0 % 0 % 0 m²/s² 0 0 8.68 0
07:00 0 J/kg 4.9 K 0 % 0 % 0 % 0 m²/s² 0 0 9.43 0
08:00 1 J/kg 4.7 K 0 % 0 % 0 % 0 m²/s² 0 0 9.47 1
09:00 14 J/kg 4.3 K 0 % 0 % 0 % 0 m²/s² 0 0 9.43 0
10:00 4 J/kg 4.8 K 0 % 0 % 0 % 0 m²/s² 0 0 10.38 0
11:00 4 J/kg 4.8 K 0 % 0 % 0 % 0 m²/s² 0 0 10.08 3
12:00 9 J/kg 5.0 K 0 % 0 % 0 % 0 m²/s² 0 0 9.77 3
13:00 17 J/kg 4.7 K 0 % 0 % 0 % 0 m²/s² 0 0 9.02 3
14:00 28 J/kg 4.5 K 0 % 0 % 0 % 0 m²/s² 0 0 8.52 3
15:00 51 J/kg 4.5 K 0 % 0 % 0 % 0 m²/s² 0 0 8.73 3
16:00 72 J/kg 4.1 K 0 % 0 % 0 % 0 m²/s² 0 0 8.24 3
17:00 79 J/kg 4.1 K 0 % 0 % 0 % 0 m²/s² 0 0 8.45 3
18:00 62 J/kg 4.2 K 0 % 0 % 0 % 0 m²/s² 0 0 7.92 2
19:00 77 J/kg 3.8 K 0 % 0 % 0 % 0 m²/s² 0 0 7.73 3
20:00 70 J/kg 3.8 K 0 % 0 % 0 % 0 m²/s² 0 0 7.25 3
21:00 71 J/kg 3.6 K 0 % 0 % 0 % 0 m²/s² 0 0 7.83 3
22:00 37 J/kg 4.1 K 0 % 0 % 0 % 0 m²/s² 0 0 8.12 3
23:00 0 J/kg 4.7 K 0 % 0 % 0 % 0 m²/s² 0 0 7.88 3
 04:28     22:02    Daglengte: 17:34 Woensdag 19 Jun
00:00 0 J/kg 5.2 K 0 % 0 % 0 % 0 m²/s² 0 0 8.47 3
01:00 0 J/kg 5.6 K 0 % 0 % 0 % 0 m²/s² 0 0 8.87 3
02:00 0 J/kg 5.7 K 0 % 0 % 0 % 0 m²/s² 0 0 8.55 3
03:00 0 J/kg 5.6 K 0 % 0 % 0 % 0 m²/s² 0 0 7.4 3
04:00 0 J/kg 5.6 K 0 % 0 % 0 % 0 m²/s² 0 0 6.95 3
05:00 0 J/kg 5.5 K 0 % 0 % 0 % 0 m²/s² 0 0 6.55 3
06:00 0 J/kg 5.6 K 0 % 0 % 0 % 0 m²/s² 0 0 6.38 3
07:00 0 J/kg 5.5 K 0 % 0 % 0 % 0 m²/s² 0 0 6.61 3
08:00 0 J/kg 5.6 K 0 % 0 % 0 % 0 m²/s² 0 0 6.74 3
09:00 0 J/kg 5.6 K 0 % 0 % 0 % 0 m²/s² 0 0 6.65 61
10:00 0 J/kg 5.6 K 0 % 0 % 0 % 0 m²/s² 0 0 6.23 61
11:00 0 J/kg 5.3 K 0 % 0 % 0 % 0 m²/s² 0 0 5.9 61
12:00 1 J/kg 5.3 K 0 % 0 % 0 % 0 m²/s² 0 0 5.93 61
13:00 11 J/kg 5.1 K 0 % 0 % 0 % 0 m²/s² 0 0 5.91 61
14:00 7 J/kg 5.1 K 0 % 0 % 0 % 0 m²/s² 0 0 5.91 61
15:00 29 J/kg 4.6 K 0 % 0 % 0 % 0 m²/s² 0 0 5.5 61
16:00 19 J/kg 4.3 K 0 % 0 % 0 % 0 m²/s² 0 0 4.99 61
17:00 25 J/kg 3.7 K 0 % 0 % 0 % 0 m²/s² 0 0 4.99 61
Temp Baro Wind Neerslag
  EWN Forecast EWN WRFDA DWD ICON FMI HIRLAM MET Norway GFS
 04:28     22:01    Daglengte: 17:33 Vandaag
19:00 14.0° 1008.7 hPa 3.1 m/s 0.0 mm 12.7° 1007.8 hPa 2.1 m/s 2.3 mm 15.7° 1008.8 hPa 3.3 m/s -1.7 mm 13.9° 1008.8 hPa 4.5 m/s 0.0 mm 14.0° 1008.6 hPa 3.1 m/s 0.0 mm 13.6° 1008.8 hPa 2.9 m/s
22:00 12.8° 1008.3 hPa 2.5 m/s 0.0 mm 12.8° 1007.4 hPa 2.2 m/s 4.7 mm 13.2° 1008.5 hPa 2.3 m/s 0.0 mm 13.1° 1008.9 hPa 2.5 m/s 0.0 mm 12.0° 1007.6 hPa 2.1 m/s 0.0 mm 11.8° 1008.6 hPa 2.4 m/s
 04:28     22:01    Daglengte: 17:33 Morgen
01:00 12.0° 1006.7 hPa 3.4 m/s 3.2 mm 12.0° 1005.7 hPa 3.9 m/s 6.1 mm 12.6° 1007.1 hPa 3.9 m/s 1.0 mm 12.1° 1007.6 hPa 3.1 m/s 0.0 mm 11.7° 1005.9 hPa 2.0 m/s 4.2 mm 10.9° 1007.3 hPa 3.4 m/s
04:00 11.8° 1006.4 hPa 5.9 m/s 0.0 mm 11.2° 1005.3 hPa 5.5 m/s 7.0 mm 11.8° 1007.4 hPa 3.5 m/s 0.0 mm 12.1° 1006.0 hPa 1.6 m/s 0.0 mm 11.0° 1006.3 hPa 7.2 m/s 0.0 mm 11.0° 1006.6 hPa 5.4 m/s
07:00 12.1° 1007.8 hPa 4.8 m/s 0.0 mm 12.1° 1006.3 hPa 5.7 m/s 7.0 mm 12.4° 1008.1 hPa 5.2 m/s 0.0 mm 12.7° 1007.1 hPa 4.4 m/s 0.0 mm 11.6° 1008.0 hPa 3.5 m/s 0.0 mm 11.5° 1007.6 hPa 5.3 m/s
10:00 14.3° 1008.2 hPa 5.9 m/s 0.0 mm 13.7° 1006.8 hPa 6.3 m/s 7.0 mm 15.7° 1008.3 hPa 5.8 m/s 0.0 mm 14.2° 1008.5 hPa 5.2 m/s 0.0 mm 14.1° 1007.9 hPa 5.8 m/s 0.0 mm 14.3° 1008.5 hPa 6.4 m/s
13:00 15.6° 1008.2 hPa 7.6 m/s 0.8 mm 15.2° 1006.4 hPa 8.0 m/s 7.1 mm 17.2° 1008.1 hPa 6.8 m/s 0.2 mm 16.0° 1009.8 hPa 8.8 m/s 0.0 mm 15.5° 1008.0 hPa 7.1 m/s 0.3 mm 16.1° 1008.4 hPa 7.9 m/s
16:00 16.0° 1008.1 hPa 8.2 m/s 0.0 mm 15.7° 1006.3 hPa 8.5 m/s 7.1 mm 17.4° 1008.0 hPa 7.5 m/s 0.1 mm 16.2° 1010.1 hPa 7.8 m/s 0.0 mm 15.8° 1007.5 hPa 8.0 m/s 0.0 mm 16.5° 1007.9 hPa 8.6 m/s
19:00 15.3° 1008.6 hPa 7.6 m/s 0.6 mm 14.1° 1006.9 hPa 9.3 m/s 8.0 mm 15.5° 1008.5 hPa 6.5 m/s 0.2 mm 15.8° 1010.7 hPa 7.4 m/s 0.0 mm 14.2° 1008.3 hPa 7.2 m/s 0.6 mm 14.7° 1008.1 hPa 7.8 m/s
22:00 13.1° 1009.9 hPa 4.1 m/s 0.0 mm 11.9° 1008.1 hPa 3.1 m/s 23.5 mm 13.2° 1009.9 hPa 3.4 m/s 0.0 mm 14.3° 1011.5 hPa 5.9 m/s 0.0 mm 12.2° 1009.9 hPa 3.9 m/s 0.0 mm 12.1° 1009.9 hPa 5.0 m/s
 04:28     22:02    Daglengte: 17:34 Dinsdag 18 Jun
01:00 11.9° 1010.3 hPa 3.1 m/s 0.0 mm 11.4° 1008.7 hPa 3.0 m/s 29.4 mm 12.0° 1010.3 hPa 2.2 m/s 0.0 mm 13.1° 1011.2 hPa 5.0 m/s 0.0 mm 10.4° 1010.5 hPa 2.3 m/s 0.0 mm 10.4° 1010.5 hPa 3.6 m/s
04:00 11.4° 1010.0 hPa 4.1 m/s 0.0 mm 11.0° 1008.7 hPa 4.9 m/s 29.5 mm 11.3° 1010.0 hPa 2.5 m/s 0.0 mm 13.0° 1011.0 hPa 5.1 m/s 0.0 mm 10.4° 1010.2 hPa 2.8 m/s 0.0 mm 9.8° 1010.5 hPa 2.9 m/s
07:00 12.2° 1010.0 hPa 4.5 m/s 0.0 mm 11.5° 1008.4 hPa 4.8 m/s 29.5 mm 12.6° 1009.7 hPa 3.9 m/s 0.0 mm 12.8° 1010.6 hPa 5.1 m/s 0.0 mm 12.1° 1010.7 hPa 3.1 m/s 0.0 mm 11.1° 1009.9 hPa 4.5 m/s
10:00 14.4° 1010.0 hPa 6.5 m/s 0.0 mm 13.5° 1008.5 hPa 5.9 m/s 29.5 mm 15.5° 1009.7 hPa 6.2 m/s 0.0 mm 14.7° 1010.7 hPa 6.8 m/s 0.0 mm 14.5° 1010.4 hPa 5.4 m/s 0.4 mm 13.9° 1010.0 hPa 6.9 m/s
13:00 15.3° 1010.0 hPa 6.6 m/s 0.0 mm 15.2° 1008.1 hPa 6.2 m/s 29.5 mm 14.1° 1010.6 hPa 6.1 m/s 0.0 mm 15.6° 1010.6 hPa 6.5 m/s 0.0 mm 16.2° 1010.1 hPa 6.1 m/s 0.5 mm 14.9° 1010.2 hPa 7.4 m/s
16:00 16.1° 1009.7 hPa 6.1 m/s 0.0 mm 15.6° 1008.0 hPa 5.3 m/s 29.5 mm 16.2° 1010.4 hPa 5.3 m/s 0.0 mm 16.4° 1009.8 hPa 5.9 m/s 0.0 mm 16.2° 1010.0 hPa 6.0 m/s
19:00 15.7° 1009.4 hPa 4.4 m/s 0.0 mm 14.6° 1007.8 hPa 4.3 m/s 29.5 mm 16.4° 1010.2 hPa 3.7 m/s 0.0 mm 15.8° 1009.5 hPa 4.2 m/s 0.0 mm 14.6° 1009.9 hPa 4.9 m/s
22:00 12.7° 1010.0 hPa 2.8 m/s 0.0 mm 12.4° 1008.8 hPa 2.1 m/s 30.3 mm 14.0° 1010.6 hPa 2.2 m/s 0.1 mm 12.4° 1010.1 hPa 2.9 m/s 0.0 mm 12.2° 1010.8 hPa 3.5 m/s
 04:28     22:02    Daglengte: 17:34 Woensdag 19 Jun
01:00 11.4° 1009.8 hPa 2.3 m/s 0.0 mm 11.2° 1007.9 hPa 1.9 m/s 30.6 mm 12.5° 1010.0 hPa 1.1 m/s 0.0 mm 10.5° 1010.0 hPa 2.4 m/s 0.0 mm 10.6° 1010.0 hPa 2.3 m/s
04:00 10.5° 1008.8 hPa 1.6 m/s 0.0 mm 10.8° 1007.1 hPa 1.6 m/s 30.6 mm 10.4° 1009.1 hPa 1.1 m/s 0.0 mm 9.5° 1009.0 hPa 2.1 m/s 0.0 mm 10.0° 1009.2 hPa 1.5 m/s
07:00 11.3° 1008.2 hPa 1.5 m/s 0.0 mm 10.9° 1006.2 hPa 0.6 m/s 30.6 mm 12.2° 1008.5 hPa 0.4 m/s 0.0 mm 11.1° 1008.5 hPa 1.4 m/s 0.0 mm 11.5° 1008.2 hPa 0.9 m/s
10:00 12.7° 1007.4 hPa 1.7 m/s 4.0 mm 10.9° 1006.1 hPa 0.1 m/s 32.6 mm 13.1° 1007.5 hPa 1.5 m/s 0.4 mm 12.8° 1007.7 hPa 1.6 m/s 14.5° 1007.7 hPa 0.8 m/s
13:00 13.8° 1006.4 hPa 2.3 m/s 11.6 mm 11.6° 1004.9 hPa 3.3 m/s 35.6 mm 12.9° 1006.6 hPa 2.2 m/s 2.1 mm 14.4° 1006.9 hPa 1.8 m/s 15.1° 1006.3 hPa 2.5 m/s
16:00 13.6° 1005.5 hPa 2.6 m/s 13.2 mm 12.2° 1003.6 hPa 3.6 m/s 37.4 mm 12.6° 1005.4 hPa 1.4 m/s 1.1 mm 14.6° 1006.0 hPa 2.7 m/s 12.9° 1005.5 hPa 2.7 m/s
19:00 14.0° 1004.6 hPa 2.5 m/s 13.1 mm 13.4° 1002.5 hPa 1.8 m/s 38.5 mm 13.1° 1004.6 hPa 0.5 m/s 0.4 mm 14.8° 1005.0 hPa 3.6 m/s 12.8° 1004.5 hPa 3.1 m/s
22:00 12.7° 1005.1 hPa 3.5 m/s 10.9 mm 12.7° 1005.1 hPa 3.5 m/s 11.8° 1005.1 hPa 3.5 m/s 10.9 mm
 04:28     22:02    Daglengte: 17:34 Donderdag 20 Jun
01:00 11.6° 1005.1 hPa 3.4 m/s 10.9 mm 11.7° 1005.2 hPa 3.4 m/s 10.8° 1004.3 hPa 3.7 m/s 10.9 mm
04:00 11.5° 1004.8 hPa 3.6 m/s 11.2 mm 11.6° 1004.8 hPa 3.5 m/s 10.2° 1004.4 hPa 3.8 m/s 11.2 mm
07:00 11.5° 1004.4 hPa 3.7 m/s 11.2 mm 11.6° 1004.4 hPa 3.7 m/s 10.8° 1004.4 hPa 4.0 m/s 11.2 mm
10:00 12.6° 1004.9 hPa 5.1 m/s 11.3 mm 12.5° 1004.9 hPa 5.1 m/s 13.2° 1005.0 hPa 5.1 m/s 11.3 mm
13:00 13.5° 1005.4 hPa 6.4 m/s 11.9 mm 13.4° 1005.4 hPa 6.5 m/s 14.5° 1005.2 hPa 5.8 m/s 11.9 mm
16:00 13.0° 1005.8 hPa 7.0 m/s 13.2 mm 12.8° 1005.8 hPa 7.0 m/s 15.2° 1005.5 hPa 5.9 m/s 13.2 mm
19:00 12.4° 1006.2 hPa 7.4 m/s 14.6 mm 12.2° 1006.3 hPa 7.6 m/s 14.1° 1005.6 hPa 5.2 m/s 14.6 mm
22:00 10.8° 1007.7 hPa 6.7 m/s 14.7 mm 10.8° 1007.8 hPa 6.9 m/s 11.2° 1007.1 hPa 4.2 m/s 14.7 mm
 04:28     22:03    Daglengte: 17:35 Vrijdag 21 Jun
01:00 9.4° 1009.2 hPa 6.1 m/s 14.7 mm 9.4° 1009.3 hPa 6.3 m/s 9.3° 1007.9 hPa 4.4 m/s 14.7 mm
04:00 9.5° 1010.7 hPa 6.1 m/s 14.7 mm 9.7° 1010.8 hPa 6.2 m/s 8.4° 1009.1 hPa 4.2 m/s 14.7 mm
07:00 9.9° 1012.1 hPa 6.1 m/s 14.7 mm 9.9° 1012.3 hPa 6.2 m/s 9.8° 1010.1 hPa 5.4 m/s 14.7 mm
10:00 11.8° 1013.5 hPa 6.6 m/s 14.8 mm 11.7° 1013.7 hPa 6.7 m/s 13.0° 1011.6 hPa 5.7 m/s 14.8 mm
13:00 13.5° 1014.9 hPa 7.1 m/s 15.2 mm 13.4° 1015.1 hPa 7.1 m/s 15.1° 1012.8 hPa 6.5 m/s 15.2 mm
16:00 13.3° 1016.2 hPa 6.6 m/s 15.7 mm 13.2° 1016.4 hPa 6.8 m/s 14.9° 1014.1 hPa 5.0 m/s 15.7 mm
19:00 13.0° 1017.5 hPa 6.0 m/s 16.5 mm 13.0° 1017.7 hPa 6.4 m/s 13.4° 1015.3 hPa 1.5 m/s 16.5 mm
22:00 10.9° 1019.5 hPa 5.2 m/s 16.6 mm 10.9° 1019.7 hPa 5.4 m/s 10.6° 1017.1 hPa 3.1 m/s 16.6 mm
 04:29     22:03    Daglengte: 17:34 Zaterdag 22 Jun
01:00 8.7° 1021.4 hPa 4.3 m/s 16.6 mm 8.8° 1021.7 hPa 4.4 m/s 8.2° 1018.1 hPa 3.2 m/s 16.6 mm
04:00 8.9° 1022.4 hPa 3.8 m/s 16.6 mm 9.1° 1022.8 hPa 3.9 m/s 6.7° 1018.8 hPa 3.1 m/s 16.6 mm
07:00 9.3° 1023.4 hPa 3.2 m/s 16.6 mm 9.4° 1023.8 hPa 3.3 m/s 8.7° 1019.5 hPa 2.3 m/s 16.6 mm
10:00 11.9° 1024.0 hPa 2.3 m/s 16.6 mm 11.8° 1024.4 hPa 2.3 m/s 13.3° 1019.7 hPa 1.8 m/s 16.6 mm
13:00 14.4° 1024.6 hPa 1.2 m/s 16.8 mm 14.2° 1025.0 hPa 1.3 m/s 16.5° 1019.8 hPa 0.4 m/s 16.8 mm
16:00 14.2° 1024.4 hPa 2.3 m/s 17.5 mm 14.1° 1024.9 hPa 2.2 m/s 14.7° 1019.3 hPa 2.4 m/s 17.5 mm
19:00 14.2° 1024.3 hPa 3.0 m/s 18.1 mm 14.1° 1024.8 hPa 3.2 m/s 14.8° 1018.9 hPa 0.7 m/s 18.1 mm
22:00 12.7° 1024.8 hPa 2.8 m/s 18.2 mm 12.8° 1025.3 hPa 2.9 m/s 12.4° 1019.6 hPa 1.8 m/s 18.2 mm
 04:29     22:03    Daglengte: 17:34 Zondag 23 Jun
01:00 11.4° 1025.3 hPa 2.4 m/s 18.2 mm 11.4° 1025.8 hPa 2.5 m/s 10.9° 1019.5 hPa 1.1 m/s 18.2 mm
04:00 11.1° 1025.3 hPa 1.3 m/s 18.2 mm 11.2° 1025.8 hPa 1.4 m/s 10.1° 1018.7 hPa 0.7 m/s 18.2 mm
07:00 10.9° 1025.3 hPa 0.3 m/s 18.2 mm 10.9° 1025.9 hPa 0.2 m/s 11.4° 1018.2 hPa 1.6 m/s 18.2 mm
10:00 12.7° 1025.3 hPa 1.4 m/s 18.3 mm 12.7° 1026.0 hPa 1.3 m/s 13.8° 1017.7 hPa 2.4 m/s 18.3 mm
13:00 14.6° 1025.4 hPa 2.6 m/s 18.7 mm 14.4° 1026.1 hPa 2.4 m/s 16.5° 1017.4 hPa 4.8 m/s 18.7 mm
16:00 14.8° 1025.1 hPa 3.1 m/s 19.2 mm 14.6° 1025.9 hPa 3.0 m/s 17.1° 1016.1 hPa 5.1 m/s 19.2 mm
19:00 14.7° 1024.8 hPa 3.6 m/s 19.6 mm 14.7° 1025.7 hPa 3.5 m/s 15.1° 1014.9 hPa 5.0 m/s 19.6 mm
 04:29     22:03    Daglengte: 17:34 Maandag 24 Jun
01:00 10.4° 1026.2 hPa 2.3 m/s 19.6 mm 10.3° 1027.4 hPa 2.2 m/s 11.3° 1012.8 hPa 3.9 m/s 19.6 mm
07:00 11.0° 1026.7 hPa 2.8 m/s 24.5 mm 10.9° 1028.4 hPa 2.5 m/s 12.0° 1007.9 hPa 5.9 m/s 24.5 mm
13:00 13.8° 1027.0 hPa 3.9 m/s 28.6 mm 13.9° 1029.1 hPa 3.9 m/s 12.9° 1004.4 hPa 3.5 m/s 28.6 mm
19:00 13.9° 1026.8 hPa 2.9 m/s 32.6 mm 14.0° 1029.1 hPa 2.9 m/s 12.8° 1001.9 hPa 3.2 m/s 32.6 mm
 04:30     22:03    Daglengte: 17:33 Dinsdag 25 Jun
01:00 11.0° 1027.7 hPa 0.9 m/s 40.3 mm 10.9° 1030.2 hPa 0.7 m/s 12.2° 1000.6 hPa 3.6 m/s 40.3 mm
07:00 11.9° 1027.0 hPa 2.1 m/s 48.4 mm 11.9° 1029.5 hPa 2.2 m/s 12.4° 999.5 hPa 1.0 m/s 48.4 mm
13:00 17.8° 1026.9 hPa 0.5 m/s 49.5 mm 18.2° 1029.2 hPa 0.4 m/s 13.5° 1001.6 hPa 1.8 m/s 49.5 mm
19:00 16.6° 1025.9 hPa 1.8 m/s 50.8 mm 16.9° 1027.9 hPa 1.8 m/s 12.8° 1004.4 hPa 1.3 m/s 50.8 mm
 04:30     22:03    Daglengte: 17:33 Woensdag 26 Jun
01:00 13.0° 1026.5 hPa 4.1 m/s 51.2 mm 13.1° 1028.1 hPa 4.1 m/s 12.0° 1008.8 hPa 4.5 m/s 51.2 mm
07:00 10.4° 1013.1 hPa 5.7 m/s 51.3 mm 10.4° 1013.1 hPa 5.7 m/s 51.3 mm
13:00 14.8° 1023.7 hPa 2.0 m/s 0.1 mm
19:00 14.5° 1022.5 hPa 1.1 m/s 0.3 mm
 04:31     22:02    Daglengte: 17:31 Donderdag 27 Jun
01:00 8.3° 1022.1 hPa 0.2 m/s 0.4 mm
07:00 9.7° 1020.4 hPa 0.6 m/s 0.7 mm
13:00 15.0° 1019.3 hPa 1.1 m/s 0.8 mm
19:00 14.2° 1017.5 hPa 1.0 m/s 1.2 mm
 04:32     22:02    Daglengte: 17:30 Vrijdag 28 Jun
01:00 9.0° 1016.5 hPa 1.2 m/s 0.9 mm
07:00 10.5° 1014.9 hPa 2.2 m/s 0.6 mm
13:00 15.5° 1014.5 hPa 3.3 m/s 0.6 mm
19:00 15.3° 1013.7 hPa 2.6 m/s 0.9 mm
 04:32     22:02    Daglengte: 17:30 Zaterdag 29 Jun
01:00 9.8° 1013.8 hPa 2.2 m/s 0.5 mm
07:00 10.8° 1013.0 hPa 2.4 m/s 0.5 mm
13:00 15.8° 1012.7 hPa 2.4 m/s 0.6 mm
19:00 15.6° 1011.9 hPa 2.2 m/s 1.1 mm
 04:33     22:02    Daglengte: 17:29 Zondag 30 Jun
01:00 9.4° 1011.9 hPa 1.3 m/s 0.9 mm
07:00 10.8° 1010.6 hPa 1.0 m/s 1.0 mm
13:00 15.4° 1010.4 hPa 1.6 m/s 1.4 mm
19:00 15.0° 1010.2 hPa 1.4 m/s 2.1 mm
 04:34     22:01    Daglengte: 17:27 Maandag 01 Jul
01:00 9.5° 1010.9 hPa 1.1 m/s 1.1 mm
07:00 10.2° 1010.7 hPa 1.8 m/s 0.7 mm
13:00 15.3° 1011.2 hPa 2.1 m/s 0.8 mm
FMI Hirlam - 7.5 km EWN WRFDA - 12 km DWD ICON - 7 km GFS - 25 km Basiskaart






























































Updatetijd (Europe/Amsterdam) Resolutie Lengte Stap
FMI Hirlam 19:00, 01:00, 07:00, 13:00 7.5 km 49h 1h
EWN WRFDA 16:15, 22:15, 04:15, 10:15 12 km 73h 1h
DWD ICON 18:00, 00:00, 06:00, 12:00 7 km 75h 1h
GFS 14:30, 20:30, 02:30, 08:30 25 km 237h 3h
30+ mm
25-30 mm
20-25 mm
15-20 mm
10-15 mm
6-10 mm
4-6 mm
2-4 mm
1-2 mm
0.5-1 mm
0.2-0.5 mm
0.1-0.2 mm
30+ mm
25-30 mm
20-25 mm
15-20 mm
10-15 mm
6-10 mm
4-6 mm
2-4 mm
1-2 mm
0.5-1 mm
0.2-0.5 mm
0.1-0.2 mm
Sneeuwval
Natte sneeuw
Hagel
Vorst
30+ mm
25-30 mm
20-25 mm
15-20 mm
10-15 mm
6-10 mm
4-6 mm
2-4 mm
1-2 mm
0.5-1 mm
0.2-0.5 mm
0.1-0.2 mm
Sneeuwval
Natte sneeuw
Hagel
Vorst
Onweer
50 mm
40 mm
30 mm
26 mm
22 mm
18 mm
14 mm
10 mm
9 mm
8 mm
7 mm
6 mm
5 mm
4.5 mm
4 mm
3.5 mm
3 mm
2.5 mm
2 mm
1.5 mm
1 mm
0.8 mm
0.6 mm
0.4 mm
0.2 mm
0.05 mm
35°
30°
25°
20°
15°
10°
-5°
-10°
-15°
-20°
-25°
-30°
-35°
33> m/s
29 m/s
25 m/s
21 m/s
17 m/s
14 m/s
11 m/s
8 m/s
5 m/s
3 m/s
0 m/s
2600 J/kg
2400 J/kg
2200 J/kg
2000 J/kg
1800 J/kg
1600 J/kg
1400 J/kg
1200 J/kg
1000 J/kg
800 J/kg
600 J/kg
400 J/kg
200 J/kg
70 dBZ
65 dBZ
60 dBZ
55 dBZ
50 dBZ
45 dBZ
40 dBZ
35 dBZ
30 dBZ
25 dBZ
20 dBZ
15 dBZ
10 dBZ
5 dBZ
-1 K
-2 K
-3 K
-4 K
-5 K
-6 K
-7 K
-8 K
-9 K
950 m²/s²
900 m²/s²
850 m²/s²
800 m²/s²
750 m²/s²
700 m²/s²
650 m²/s²
600 m²/s²
550 m²/s²
500 m²/s²
450 m²/s²
400 m²/s²
350 m²/s²
300 m²/s²
250 m²/s²
200 m²/s²
150 m²/s²
100 m²/s²
46 m/s
44 m/s
42 m/s
40 m/s
38 m/s
36 m/s
34 m/s
32 m/s
30 m/s
28 m/s
26 m/s
24 m/s
22 m/s
20 m/s
16 m/s
12 m/s
8 m/s
4 m/s
30 m/s
28 m/s
26 m/s
24 m/s
22 m/s
20 m/s
18 m/s
16 m/s
14 m/s
12 m/s
10 m/s
8 m/s
6 m/s
4 m/s
2 m/s
3.0
2.8
2.6
2.4
2.2
2.0
1.8
1.6
1.4
1.2
1.0
0.8
0.6
0.4
0.2
15
14
13
12
11
10
9
8
7
6
5
4
3
2
1
90%
80%
70%
60%
50%
40%
30%
20%
10%
42
40
38
36
34
32
30
28
26
24
22
20
18
16
14
12
90+ cm
80-90 cm
70-80 cm
60-70 cm
50-60 cm
40-50 cm
30-40 cm
20-30 cm
10-20 cm
1-10 cm
Sneeuwval
Natte sneeuw
Regen